Flag for Switzerland Weather past 2 weeks in Yverdon-les-Bains, Vaud, Switzerland

Now
62 °F

Overcast.


Feels Like: 62 °F
Forecast: 44 / 68 °F
Wind: 2 mph from South

Location: Payerne

Current Time: Sep 3, 2015 at 9:35:58 PM

Latest Report: Sep 3, 2015 at 8:00 PM


Visibility: 16 mi

Pressure: 29.96 "Hg

Humidity: 64%

Dew point: 49 °F

Location of Yverdon-les-BainsLocation

Historic Weather in Yverdon-les-Bains — Graph

°F

Yverdon-les-Bains temperature yesterday

Maximum temperature yesterday: 72 °F (at 5:00 PM)
Minimum temperature yesterday: 56 °F (at 7:00 AM)
Average temperature yesterday: 64 °F

Past Weeks' High & Low Weather Summary

 TemperatureHumidityPressure
High87 °F (Aug 31, 5:00 PM)98% (Aug 20, 7:00 AM)30.26 "Hg (Aug 20, 7:00 AM)
Low48 °F (Aug 26, 6:00 AM)31% (Aug 31, 5:00 PM)29.72 "Hg (Aug 24, 7:00 AM)
Average66 °F71%30.01 "Hg
* Reported Aug 19 8:00 PM — Sep 3 8:00 PM, Yverdon-les-Bains, Weather by CustomWeather, © 2015

Note: Actual official high and low records may vary slightly from our data, if they occured in-between our weather recording intervals... More about our weather records

Advertising

Yverdon-les-Bains weather history for previous 24 hours

 ConditionsComfort  
Time TempWeatherWind HumidityBarometerVisibility
8:00 PM
Thu, Sep 3
62 °FOvercast.2 mph64%29.96 "Hg16 mi
7:00 PM64 °FMild.2 mph62%29.95 "HgN/A
6:00 PM65 °FMild.7 mph55%29.94 "HgN/A
5:00 PM66 °FMild.5 mph55%29.93 "HgN/A
4:00 PM68 °FMild.5 mph52%29.92 "HgN/A
3:00 PM66 °FMild.2 mph55%29.94 "HgN/A
2:00 PM66 °FOvercast.3 mph51%29.94 "Hg19 mi
1:00 PM65 °FMild.2 mph54%29.94 "HgN/A
12:00 PM64 °FMild.1 mph61%29.96 "HgN/A
11:00 AM62 °FOvercast.2 mph64%29.96 "Hg19 mi
10:00 AM61 °FCool.1 mph77%29.97 "HgN/A
9:00 AM57 °FCool.3 mph85%29.98 "HgN/A
8:00 AM56 °FOvercast.2 mph88%29.97 "Hg16 mi
7:00 AM55 °FCool.5 mph90%29.98 "HgN/A
5:00 AM54 °FCool.3 mph92%29.97 "HgN/A
4:00 AM56 °FCool.3 mph90%29.98 "HgN/A
3:00 AM57 °FCool.5 mph87%29.98 "HgN/A
2:00 AM60 °FPassing clouds.2 mph80%29.97 "Hg14 mi
1:00 AM57 °FCool.1 mph86%29.98 "HgN/A
12:00 AM59 °FCool.6 mph83%29.98 "HgN/A
10:00 PM
Wed, Sep 2
63 °FMild.1 mph68%29.97 "HgN/A
9:00 PM63 °FMild.1 mph72%29.96 "HgN/A
Weather by CustomWeather, © 2015

See weather overviewHow to use our weather pages